ICE28T EGCC-BIKF

Flight info

Callsign ICE28T
Flight time N/A
Altitude 34000
Route POL N601 ERGAB DCT BARKU DCT RATSU/M078F340 DCT ALDAN DCT ASRUN ASRUN4N
Aircraft A21N/M-SDE2E3FGHIRWXY/LB1

Departure

Time 2026-05-05 19:34
Airport Manchester Airport (EGCC)

Arrival

Time N/A
Airport Keflavik International Airport (BIKF)
Time Latitude Longitude Altitude Speed Heading
2026-05-05 18:39 53.36439 -2.27738 261 ft 0 kts 45°
2026-05-05 19:19 53.36430 -2.27753 260 ft 4 kts 45°
2026-05-05 19:19 53.36411 -2.27785 260 ft 4 kts 45°
2026-05-05 19:19 53.36396 -2.27809 261 ft 4 kts 34°
2026-05-05 19:20 53.36373 -2.27823 260 ft 4 kts 347°
2026-05-05 19:20 53.36360 -2.27812 261 ft 3 kts 315°
2026-05-05 19:20 53.36346 -2.27780 261 ft 2 kts 285°
2026-05-05 19:20 53.36340 -2.27744 261 ft 3 kts 284°
2026-05-05 19:21 53.36340 -2.27740 261 ft 0 kts 284°
2026-05-05 19:23 53.36347 -2.27775 260 ft 6 kts 296°
2026-05-05 19:24 53.36386 -2.27859 260 ft 11 kts 307°
2026-05-05 19:24 53.36366 -2.27975 260 ft 13 kts 229°
2026-05-05 19:24 53.36289 -2.28059 260 ft 14 kts 201°
2026-05-05 19:24 53.36195 -2.28032 260 ft 16 kts 143°
2026-05-05 19:25 53.36109 -2.27906 260 ft 17 kts 141°
2026-05-05 19:25 53.36013 -2.27857 260 ft 15 kts 184°
2026-05-05 19:25 53.35933 -2.27769 260 ft 17 kts 124°
2026-05-05 19:25 53.35820 -2.27734 257 ft 18 kts 186°
2026-05-05 19:26 53.35697 -2.27755 250 ft 18 kts 186°
2026-05-05 19:26 53.35570 -2.27780 244 ft 19 kts 194°
2026-05-05 19:26 53.35460 -2.27917 244 ft 21 kts 223°
2026-05-05 19:26 53.35353 -2.28086 241 ft 22 kts 223°
2026-05-05 19:27 53.35241 -2.28264 237 ft 23 kts 233°
2026-05-05 19:27 53.35142 -2.28475 232 ft 24 kts 226°
2026-05-05 19:27 53.35036 -2.28688 234 ft 25 kts 232°
2026-05-05 19:27 53.34938 -2.28869 231 ft 15 kts 224°
2026-05-05 19:28 53.34876 -2.28973 227 ft 11 kts 226°
2026-05-05 19:28 53.34821 -2.29076 223 ft 12 kts 229°
2026-05-05 19:28 53.34765 -2.29186 221 ft 13 kts 231°
2026-05-05 19:28 53.34702 -2.29306 216 ft 14 kts 214°
2026-05-05 19:29 53.34666 -2.29331 216 ft 5 kts 198°
2026-05-05 19:29 53.34629 -2.29343 221 ft 0 kts 180°
2026-05-05 19:32 53.34623 -2.29343 220 ft 3 kts 177°
2026-05-05 19:33 53.34586 -2.29327 218 ft 9 kts 156°
2026-05-05 19:33 53.34547 -2.29238 219 ft 11 kts 56°
2026-05-05 19:33 53.34598 -2.29112 223 ft 14 kts 50°
2026-05-05 19:33 53.34694 -2.28910 226 ft 40 kts 52°
2026-05-05 19:34 53.35000 -2.28270 237 ft 108 kts 51°
2026-05-05 19:34 53.35603 -2.27024 317 ft 157 kts 52°
2026-05-05 19:34 53.36299 -2.25638 1113 ft 153 kts 50°
2026-05-05 19:35 53.37661 -2.22677 2393 ft 177 kts 54°
2026-05-05 19:35 53.38455 -2.20957 2973 ft 194 kts 53°
2026-05-05 19:35 53.39321 -2.19086 3520 ft 215 kts 53°
2026-05-05 19:35 53.40296 -2.16982 3981 ft 239 kts 53°
2026-05-05 19:36 53.41336 -2.14734 4587 ft 255 kts 52°
2026-05-05 19:36 53.42450 -2.12326 5219 ft 264 kts 52°
2026-05-05 19:36 53.43598 -2.09874 6130 ft 269 kts 48°
2026-05-05 19:36 53.45098 -2.08007 6951 ft 270 kts 21°
2026-05-05 19:37 53.46904 -2.07404 7821 ft 269 kts 357°
2026-05-05 19:37 53.48712 -2.08096 8696 ft 269 kts 333°
2026-05-05 19:37 53.50312 -2.09730 9592 ft 271 kts 330°
2026-05-05 19:37 53.52150 -2.10583 10319 ft 281 kts 354°
2026-05-05 19:38 53.54168 -2.10536 10671 ft 303 kts
2026-05-05 19:38 53.56340 -2.10449 10990 ft 322 kts 359°
2026-05-05 19:38 53.58627 -2.10411 11553 ft 332 kts 358°